Location: Alla
(46.8667°N, 15.5500°E)
Time: 00:31:51
(UTC+00:00)

Daily predictions for brighter satellites

Satellite Brightness Start Highest point End
(mag) Time Altitude Azimuth Time Altitude Azimuth Time Altitude Azimuth
Cosmos 2344 4.2 02:24:42 47° NE 02:24:42 47° NE 02:30:03 10° NE
USA 238 DEB 4.2 02:52:05 51° NE 02:52:05 51° NE 02:57:11 10° NE
USA 238 4.2 02:52:10 52° NE 02:52:10 52° NE 02:57:17 10° NE
Cosmos 2369 Rocket 3.5 02:52:23 36° E 02:52:23 36° E 02:57:08 10° NE
USA 215 3.9 02:53:25 10° E 02:59:29 46° NNE 02:59:29 46° NNE
Cosmos 1943 Rocket 3.7 03:12:50 28° NNE 03:12:50 28° NNE 03:15:25 10° NNE
CZ-2C R/B 4.2 03:07:58 10° SE 03:12:45 33° ENE 03:16:07 17° NNE
Cosmos 1634 Rocket 4.3 03:13:25 34° N 03:16:10 62° ENE 03:22:19 10° SSE
Tsikada Rocket 4.0 03:31:33 65° N 03:31:33 65° N 03:36:54 10° N
Cosmos 836 Rocket 4.5 03:40:51 81° ESE 03:40:51 81° ESE 03:45:51 10° SSE
MOS 1-B Rocket 3.9 03:34:31 10° SSE 03:40:41 78° ENE 03:43:22 33° N
CENTAUR R/B 2.8 03:44:24 50° NNW 03:44:24 50° NNW 03:51:10 10° NE
Cosmos 2278 Rocket 4.5 03:51:48 11° N 03:51:48 11° N 03:52:06 10° N
Meteor 2-13 Rocket 4.3 03:46:27 10° S 03:52:34 83° W 03:58:41 10° N
SKYMED 2 4.0 03:48:57 10° SSE 03:53:13 61° ENE 03:54:15 46° NNE
SJ-12 4.4 03:50:40 10° NNE 03:54:46 59° E 03:58:51 10° S
ATLAS 5 CENTAUR R/B 3.9 03:54:27 10° SSE 03:57:17 20° ESE 04:00:20 10° ENE
Cosmos 1503 Rocket 4.4 03:52:45 10° S 03:57:56 62° ESE 04:03:13 10° NNE
NOSS 3-2 (A) 4.2 04:04:16 34° NNW 04:04:16 34° NNW 04:10:20 10° NNE
Cosmos 1151 Rocket 3.1 04:05:31 60° SSW 04:05:31 60° SSW 04:09:12 10° S
Cosmos 1486 Rocket 3.9 04:03:40 51° SW 04:04:57 71° WNW 04:10:14 10° NNE
SL-8 R/B 3.7 04:07:03 61° SW 04:07:21 63° SSW 04:12:05 10° SE
H-2A R/B 4.3 04:04:08 10° ESE 04:07:31 23° ENE 04:10:58 10° NNE
Cosmos 773 Rocket 4.5 04:04:51 22° N 04:08:09 59° ENE 04:13:15 10° SE
Meteor 2-6 Rocket 4.0 04:05:33 23° NNW 04:09:00 85° W 04:14:24 10° S
DNEPR-1 R/B 3.9 04:11:35 56° W 04:12:13 61° WSW 04:17:51 10° SSE
NOSS 3-2 (C) 3.7 04:12:49 42° NW 04:13:31 44° NW 04:19:53 10° NE
ATLAS 3B R/B 4.1 04:08:50 10° S 04:14:38 36° ESE 04:20:42 10° NE
Okean 3 Rocket 3.5 04:13:08 10° SSW 04:17:41 81° W 04:22:15 10° N
Cosmos 1833 4.1 04:15:45 36° NW 04:18:06 71° WSW 04:23:48 10° SSE
Cosmos 1766 Rocket 3.4 04:16:29 10° SSW 04:20:47 66° W 04:25:06 10° N
SL-27 R/B 2.9 04:21:23 40° N 04:22:25 61° ENE 04:25:55 10° SSE
BREEZE-M DEB (TANK) 4.0 04:21:03 33° WSW 04:22:39 42° SSW 04:35:58 10° SE
Envisat 2.8 04:18:38 10° N 04:23:44 76° WNW 04:28:48 10° SSW
Cosmos 968 Rocket 4.5 04:27:18 27° NNW 04:27:18 27° NNW 04:30:32 10° N
Cosmos 1328 Rocket 3.5 04:25:33 41° NW 04:26:52 61° W 04:31:08 10° S
Cosmos 2263 4.2 04:24:35 17° SW 04:29:01 59° WNW 04:34:45 10° NNE
SAR-Lupe-3 4.4 04:26:32 10° N 04:30:08 74° WNW 04:33:43 10° SSW
Cosmos 2297 Rocket 4.1 04:26:35 10° N 04:31:12 25° NE 04:35:48 10° E
Cosmos 2098 Rocket 3.5 04:32:19 30° WSW 04:34:01 43° WNW 04:39:04 10° N
Cosmos 2369 Rocket 2.6 04:34:16 32° W 04:36:02 40° NW 04:41:19 10° NNE
Meteor 1-10 Rocket 4.1 04:30:55 10° NNW 04:36:27 70° W 04:41:57 10° S
Cosmos 2344 4.3 04:34:44 27° WNW 04:37:36 34° NNW 04:45:08 10° NE
BREEZE-M DEB (TANK) 4.5 04:31:11 23° WNW 04:39:51 73° SSW 04:44:10 10° SE
FALCON 9 DEB 4.2 04:40:34 29° NNW 04:40:43 29° N 04:43:44 10° NE
Meteor 2-15 Rocket 4.4 04:35:06 10° N 04:41:14 89° E 04:47:18 10° S
COSMO-SKYMED 1 2.9 04:37:13 10° S 04:41:20 43° W 04:42:51 31° NW
Cosmos 1656 Rocket 3.8 04:37:56 18° WSW 04:41:42 47° WNW 04:46:58 10° NNE
USA 238 DEB 4.4 04:39:34 27° WNW 04:41:55 34° NNW 04:48:13 10° NNE
USA 238 4.4 04:39:38 27° WNW 04:42:01 34° NNW 04:48:19 10° NNE
USA 215 3.2 04:35:45 10° SE 04:42:17 85° SW 04:46:50 22° NW
Cosmos 2279 Rocket 4.1 04:36:23 10° NNW 04:42:18 49° W 04:48:13 10° SSW
H-2A R/B 4.0 04:40:21 10° N 04:46:53 12° SW 04:47:18 10° SW
Meteor 1-31 Rocket 2.8 04:40:37 10° N 04:44:25 53° WNW 04:48:14 10° SSW
BREEZE-M DEB (TANK) 3.9 04:34:09 10° SW 04:46:50 61° SSE 04:50:24 10° ENE
Alouette 2 Rocket 3.9 04:43:53 10° N 04:47:35 53° ENE 04:51:07 10° SSE
IRAS Rocket 4.2 04:46:19 10° SSE 04:51:50 87° WSW 04:57:21 10° NNW
CZ-4B R/B 3.5 04:49:48 10° SE 04:52:35 25° ENE 04:55:19 10° NNE
Nadezhda 4 Rocket 3.9 04:46:41 10° S 04:52:52 87° W 04:59:10 10° N
CZ-2C R/B 3.1 04:47:50 10° SSW 04:52:57 40° W 04:57:37 12° NNW
Cosmos 1408 Rocket 3.4 04:49:00 10° SSW 04:53:15 63° W 04:57:33 10° N
CZ-4B R/B 4.3 04:49:08 10° N 04:53:25 46° WNW 04:57:40 10° SW
Cosmos 1943 Rocket 3.6 04:54:23 18° NW 04:54:25 18° NW 04:58:11 10° N
Cosmos 1354 Rocket 4.2 04:54:50 10° SW 04:59:58 50° WNW 05:05:09 10° NNE
Cosmos 1743 Rocket 3.5 04:58:38 10° S 05:03:01 88° E 05:07:24 10° N
Cosmos 2228 Rocket 3.5 04:59:49 10° N 05:04:19 67° E 05:08:49 10° SSE
Cosmos 2227 Rocket 3.7 05:02:11 10° NNW 05:07:13 31° NE 05:12:12 10° ESE
Landsat 5 4.5 05:05:19 10° SSW 05:09:18 30° W 05:12:32 14° NW
Cosmos 1092 Rocket 4.2 05:04:13 10° S 05:10:27 77° E 05:16:48 10° N
Cosmos 1515 Rocket 4.0 05:06:42 10° NNW 05:10:45 38° W 05:14:46 10° SSW
SJ-7 4.5 05:08:32 10° N 05:12:41 58° WNW 05:16:44 10° SSW
ADEOS 3.6 05:07:33 10° N 05:12:41 57° WNW 05:17:46 10° SSW
SJ 16-02 1.2 05:08:29 10° SSW 05:12:50 66° WNW 05:17:13 10° NNE
Meteor 1-20 Rocket 4.4 05:08:38 10° S 05:14:13 81° E 05:19:57 10° NNE
Meteor 1-19 Rocket 4.5 05:11:25 10° N 05:17:02 70° ENE 05:22:28 10° SSE
BREEZE-M DEB (TANK) 3.7 05:16:52 17° WNW 05:19:29 69° N 05:29:56 10° E
Cosmos 1602 3.6 05:18:45 10° S 05:22:33 87° W 05:26:23 10° N
NOAA 11 4.3 05:18:56 10° N 05:24:14 52° WNW 05:29:33 10° SW
CZ-4C R/B 4.3 05:23:14 10° SW 05:25:26 18° W 05:26:28 15° WNW
Cosmos 1538 Rocket 4.0 05:21:42 10° NNW 05:26:54 66° WSW 05:32:01 10° S
COSMOS 2487 2.4 05:23:41 10° NNW 05:26:56 54° WSW 05:30:11 10° S
Cosmos 1500 Rocket 3.9 05:26:33 10° SSW 05:30:50 46° WNW 05:35:10 10° N
CZ-2C R/B 3.1 05:27:07 10° N 05:31:52 53° WNW 05:36:49 10° SSW
PSLV R/B 4.5 05:28:39 10° NNE 05:32:34 60° E 05:36:33 10° S
AQUARIUS 4.3 05:29:46 10° NNE 05:34:18 85° ESE 05:38:47 10° SSW
SMAP 3.0 05:30:04 10° NNE 05:34:45 84° WNW 05:39:24 10° SSW
OPS 6432 4.4 05:31:52 10° NW 05:34:46 72° NE 05:38:14 10° SE
GENESIS II 4.4 05:31:56 10° NW 05:35:52 74° NE 05:39:50 10° SE
CENTAUR R/B 4.0 05:31:36 11° WNW 05:36:37 24° NNW 05:42:44 10° NE
Sich 1 2.9 05:32:38 10° S 05:36:55 83° W 05:41:13 10° N
CZ-4B R/B 3.1 05:36:29 10° N 05:39:46 35° WNW 05:43:04 10° SW
FALCON 9 DEB 4.0 05:37:32 11° NW 05:39:56 28° NNE 05:42:30 10° ENE
H-2A R/B 2.8 05:35:24 10° NNE 05:40:15 56° E 05:45:06 10° S
ATLAS 5 CENTAUR R/B 1.6 05:37:39 10° WSW 05:41:25 47° NW 05:45:43 10° NNE
Meteor 1-27 Rocket 4.4 05:36:41 10° NNW 05:41:42 33° W 05:46:47 10° SSW
Cosmos 2219 4.0 05:36:46 10° NNW 05:42:19 52° ENE 05:47:50 10° SE
FALCON 9 DEB 3.8 05:40:01 11° NW 05:42:33 32° NNE 05:45:10 10° E
FALCON 9 DEB 3.7 05:40:11 11° NW 05:42:44 34° NNE 05:45:24 10° E
Cosmos 1707 Rocket 3.7 05:38:17 10° N 05:42:45 82° E 05:47:13 10° S
Cosmos 1805 Rocket 3.6 05:38:40 10° SSW 05:42:58 57° WNW 05:47:18 10° N
H-2A R/B 2.5 05:39:10 10° S 05:43:13 41° W 05:47:24 10° NNW
Meteor PRIRODA 4.5 05:41:27 10° N 05:44:35 28° WNW 05:47:42 10° SW
Cosmos 1500 3.1 05:40:57 10° SSW 05:44:45 75° W 05:48:34 10° N
Cosmos 1680 Rocket 3.9 05:42:27 10° NNW 05:47:45 66° ENE 05:52:58 10° SSE
USA 32 4.4 05:44:03 10° NNW 05:48:59 43° W 05:53:54 10° SSW
CZ-4B R/B 4.4 05:45:41 10° NNE 05:50:48 47° E 05:55:55 10° S
Lacrosse 4 Rocket 3.0 05:48:28 10° NNW 05:52:31 33° NE 05:56:35 10° ESE
Meteor 2-14 Rocket 4.5 05:47:39 10° SSW 05:53:46 71° W 05:59:57 10° N
Cosmos 1340 Rocket 3.9 05:52:15 10° SW 05:55:32 24° WNW 05:58:52 10° NNW
Cosmos 1862 Rocket 4.0 05:51:30 10° N 05:55:49 66° E 06:00:07 10° SSE
